Rochester, MN
on Thursday, October 25, 2012

Thursday
Previous Day Next Day
Daily Summary
 ActualAverageRecord
Temperature
Mean Temperature °F 45°F  
Max Temperature 55°F 54°F 78°F (1989)
Min Temperature 36°F 36°F -6°F (1887)
Degree Days
Heating Degree Days 19 20  
Month to date heating degree days 337 391  
Since 1 July heating degree days 507 606  
Cooling Degree Days 0 0  
Month to date cooling degree days 0 4  
Year to date cooling degree days 888 583  
Moisture
Dew Point 40°F   
Average Humidity 74    
Maximum Humidity 89    
Minimum Humidity 59    
Precipitation
Precipitation 0.84 in 0.06 in 0.92 in (2016)
Month to date precipitation 1.85 1.87  
Year to date precipitation 22.55 29.51  
Snow
Snow 0.00 in 0.10 in 0.40 in (1981)
Month to date snowfall 0.0 0.5  
Since 1 July snowfall 0.0 0.5  
Snow Depth 0.00 in   
Wind
Wind Speed 20 mph   
Max Wind Speed 31 mph   
Max Gust Speed 39 mph   
Visibility 6 miles   
Events Fog , Rain , Thunderstorm   

Key: T is trace of precipitation, MM is missing value
Source: NWS Daily Summary
Time(CDT)TemperatureDew PointHumidity Pressure Visibility Wind DirectionWind SpeedGust SpeedPrecipitationEvents Conditions
12:29 AM 55.4°F 51.8°F 88% 29.69 in 1.0 miles NNW 13.8 mph - 0.00 in Rain Light Rain
12:36 AM 55.4°F 51.8°F 88% 29.70 in 0.5 miles NNW 12.7 mph 20.7 mph 0.00 in Fog , Rain Light Rain
12:50 AM 55.4°F 51.8°F 88% 29.70 in 1.5 miles NNW 13.8 mph - 0.00 in Rain Light Rain
12:54 AM 55.0°F 51.1°F 86% 29.70 in 2.0 miles North 12.7 mph - 0.00 in Rain Light Rain
1:11 AM 53.6°F 51.8°F 94% 29.69 in 4.0 miles NNW 16.1 mph 21.9 mph 0.00 in Rain Light Rain
1:21 AM 53.6°F 50.0°F 88% 29.64 in 4.0 miles NNE 16.1 mph - 0.00 in Rain , Thunderstorm Light Rain
1:54 AM 53.1°F 48.9°F 86% 29.68 in 5.0 miles NNE 12.7 mph - 0.03 in Rain , Thunderstorm Thunderstorms and Rain
2:20 AM 53.6°F 48.2°F 82% 29.65 in 7.0 miles North 15.0 mph - 0.02 in Rain Light Rain
2:38 AM 53.6°F 48.2°F 82% 29.66 in 5.0 miles NNW 9.2 mph - 0.04 in Rain , Thunderstorm Thunderstorms and Rain
2:54 AM 53.1°F 48.9°F 86% 29.64 in 6.0 miles NNW 11.5 mph - 0.10 in Rain , Thunderstorm Light Thunderstorms and Rain
3:34 AM 53.6°F 48.2°F 82% 29.65 in 7.0 miles North 9.2 mph - 0.04 in Rain Light Rain
3:54 AM 53.1°F 48.9°F 86% 29.62 in 6.0 miles North 10.4 mph - 0.06 in Rain Rain
4:05 AM 53.6°F 48.2°F 82% 29.62 in 7.0 miles North 10.4 mph - 0.01 in Rain , Thunderstorm Rain
4:22 AM 53.6°F 48.2°F 82% 29.63 in 10.0 miles NW 15.0 mph - 0.02 in   Overcast
4:54 AM 50.0°F 46.0°F 86% 29.61 in 5.0 miles NNW 20.7 mph 26.5 mph 0.02 in Rain Light Rain
5:28 AM 48.2°F 44.6°F 87% 29.59 in 4.0 miles North 21.9 mph 27.6 mph 0.01 in Rain , Thunderstorm Light Thunderstorms and Rain
5:45 AM 48.2°F 42.8°F 82% 29.70 in 2.5 miles WNW 21.9 mph 36.8 mph 0.06 in Rain , Thunderstorm Heavy Thunderstorms and Rain
5:49 AM 48.2°F 42.8°F 82% 29.63 in 1.2 miles North 21.9 mph 36.8 mph 0.14 in Rain , Thunderstorm Heavy Thunderstorms and Rain
5:54 AM 48.0°F 44.1°F 86% 29.66 in 1.0 miles North 15.0 mph 25.3 mph 0.36 in Rain , Thunderstorm Heavy Thunderstorms and Rain
6:02 AM 48.2°F 44.6°F 87% 29.68 in 4.0 miles NW 12.7 mph - 0.03 in Rain , Thunderstorm Thunderstorms and Rain
6:41 AM 46.4°F 42.8°F 87% 29.54 in 8.0 miles NE 17.3 mph 24.2 mph 0.14 in Rain , Thunderstorm Light Rain
6:46 AM 46.4°F 42.8°F 87% 29.55 in 10.0 miles NE 18.4 mph - 0.14 in Rain Light Rain
6:54 AM 46.9°F 43.0°F 86% 29.61 in 10.0 miles North 10.4 mph 23.0 mph 0.14 in   Overcast
7:54 AM 46.0°F 42.1°F 86% 29.65 in 6.0 miles NW 16.1 mph - 0.07 in Rain Heavy Rain
8:43 AM 44.6°F 39.2°F 81% 29.68 in 2.0 miles NW 21.9 mph 28.8 mph 0.03 in Rain Light Rain
8:54 AM 44.1°F 39.0°F 82% 29.69 in 1.8 miles NW 21.9 mph 26.5 mph 0.03 in Rain Light Rain
9:01 AM 44.6°F 39.2°F 81% 29.67 in 2.0 miles NNW 24.2 mph 31.1 mph 0.00 in Rain Light Rain
9:21 AM 42.8°F 39.2°F 87% 29.65 in 4.0 miles NNW 21.9 mph 28.8 mph 0.00 in Rain Light Rain
9:54 AM 43.0°F 39.0°F 86% 29.70 in 2.5 miles NNW 21.9 mph 28.8 mph 0.00 in Rain Light Rain
10:21 AM 42.8°F 37.4°F 81% 29.70 in 3.0 miles NNW 20.7 mph 29.9 mph 0.00 in Rain Light Rain
10:43 AM 42.8°F 37.4°F 81% 29.72 in 2.5 miles NW 23.0 mph 31.1 mph 0.01 in Rain Light Rain
10:54 AM 42.1°F 37.0°F 82% 29.75 in 2.5 miles NW 20.7 mph 29.9 mph 0.01 in Rain Light Rain
11:01 AM 42.8°F 37.4°F 81% 29.71 in 3.0 miles NNW 24.2 mph 31.1 mph 0.00 in Rain Light Rain
11:17 AM 42.8°F 37.4°F 81% 29.72 in 1.8 miles NNW 27.6 mph 34.5 mph 0.00 in   Haze
11:54 AM 42.1°F 36.0°F 79% 29.75 in 3.0 miles NW 27.6 mph 36.8 mph 0.00 in Rain Light Rain
12:54 PM 39.9°F 35.1°F 83% 29.78 in 2.0 miles NW 27.6 mph 34.5 mph 0.02 in Rain Light Rain
1:37 PM 39.2°F 35.6°F 87% 29.79 in 8.0 miles NW 27.6 mph 35.7 mph 0.00 in Rain Light Rain
1:54 PM 39.9°F 34.0°F 79% 29.83 in 5.0 miles NW 27.6 mph 35.7 mph 0.00 in Rain Light Rain
2:09 PM 39.2°F 33.8°F 81% 29.82 in 10.0 miles NW 26.5 mph 36.8 mph 0.00 in   Overcast
2:54 PM 39.9°F 34.0°F 79% 29.87 in 10.0 miles NW 23.0 mph 34.5 mph 0.00 in   Overcast
3:54 PM 39.0°F 32.0°F 76% 29.91 in 10.0 miles NW 28.8 mph 34.5 mph N/A   Overcast
4:54 PM 39.0°F 30.9°F 73% 29.96 in 10.0 miles NW 23.0 mph 33.4 mph N/A   Overcast
5:54 PM 39.0°F 30.9°F 73% 30.01 in 10.0 miles NW 23.0 mph 28.8 mph N/A   Overcast
6:12 PM 39.2°F 30.2°F 70% 30.00 in 10.0 miles NW 19.6 mph 29.9 mph N/A   Overcast
6:54 PM 39.0°F 30.0°F 70% 30.06 in 10.0 miles NW 17.3 mph - N/A   Overcast
7:54 PM 39.0°F 28.9°F 67% 30.10 in 10.0 miles WNW 19.6 mph - N/A   Overcast
8:41 PM 37.4°F 30.2°F 75% 30.08 in 10.0 miles WNW 20.7 mph 26.5 mph N/A   Overcast
8:54 PM 37.9°F 28.0°F 68% 30.12 in 10.0 miles NW 23.0 mph 34.5 mph N/A   Overcast
9:06 PM 37.4°F 26.6°F 65% 30.09 in 10.0 miles NW 20.7 mph 29.9 mph N/A   Overcast
9:54 PM 37.0°F 27.0°F 67% 30.15 in 10.0 miles WNW 18.4 mph - N/A   Overcast
10:54 PM 36.0°F 27.0°F 70% 30.18 in 10.0 miles WNW 16.1 mph - N/A   Scattered Clouds
11:54 PM 37.4°F 24.8°F 60% 30.16 in 10.0 miles WNW 20.7 mph 27.6 mph N/A   Overcast
Astronomy
Sunrise:07:37 AM (CDT) Moon Rise:04:02 PM (CDT)10/25
Sunset:06:09 PM (CDT) Moon Set:03:27 AM (CDT)10/25
Moon Phase
Oct. 25 Oct. 29 Nov. 07 Nov. 13 Nov. 20

Copyright © 2017 The Weather Underground, Inc.